Tracking 31027 objects as of 19-Jul-2025
HD Live streaming from Space Station
objects crossing your sky now

BONUM 1

Track BONUM 1 now!
BONUM 1 is classified as:


NORAD ID: 25546
Int'l Code: 1998-068A
Perigee: 36,128.3 km
Apogee: 36,158.9 km
Inclination: 10.2 °
Period: 1,454.0 minutes
Semi major axis: 42514 km
RCS: 0.003 m2 (small)
Launch date: November 22, 1998
Source: Commonwealth of Independent States (former USSR) (CIS)
Launch site: AIR FORCE EASTERN TEST RANGE (AFETR)

Television broadcasting; 8 Ku-band, Siberia or Europe, selected.
Your satellite tracking list
Your tracking list is empty




NASA's NSSDC Master Catalog

Two Line Element Set (TLE):
1 25546U 98068A   25199.63103034 -.00000114  00000-0  00000-0 0  9996
2 25546  10.1850  49.3523 0003595  30.8882 187.1856  0.99036645 97235
Source of the keplerian elements: AFSPC